Home > Time Zones > World Clock > Weather > Aktau > Past weeks

Flag for Kazakhstan Weather past 2 weeks in Aktau, Kazakhstan

Now
64 °F

Clear.


Feels Like: 64 °F
Forecast: 64 / 78 °F
Wind: 8 mph from Northwest

Location: Aktau

Current Time: Sep 1, 2015 at 11:26:04 PM

Latest Report: Sep 1, 2015 at 11:00 PM


Visibility: 10 mi

Pressure: 30.01 "Hg

Humidity: 73%

Dew point: 55 °F

Location of AktauLocation

Historic Weather in Aktau — Graph

°F

Aktau temperature yesterday

Maximum temperature yesterday: 81 °F (at 12:00 PM)
Minimum temperature yesterday: 64 °F (at 6:00 AM)
Average temperature yesterday: 73 °F

Past Weeks' High & Low Weather Summary

 TemperatureHumidityPressure
High93 °F (Aug 19, 12:00 PM)94% (Aug 31, 12:30 AM)30.18 "Hg (Aug 31, 12:30 AM)
Low52 °F (Aug 26, 4:00 AM)9% (Aug 25, 3:30 PM)29.77 "Hg (Aug 24, 4:30 PM)
Average73 °F37%30.00 "Hg
* Reported Aug 17 10:00 PM — Sep 1 10:00 PM, Aktau, Weather by CustomWeather, © 2015

Note: Actual official high and low records may vary slightly from our data, if they occured in-between our weather recording intervals... More about our weather records

Advertising

Aktau weather history for previous 24 hours

 ConditionsComfort  
Time TempWeatherWind HumidityBarometerVisibility
10:00 PM
Tue, Sep 1
66 °FSunny.6 mph68%29.98 "Hg10 mi
9:30 PM70 °FSunny.10 mph53%29.98 "Hg10 mi
9:00 PM70 °FPassing clouds.8 mph60%29.98 "HgN/A
8:30 PM72 °FSunny.13 mph53%29.98 "Hg10 mi
8:00 PM72 °FSunny.13 mph53%29.98 "Hg10 mi
7:30 PM73 °FPartly sunny.15 mph47%29.95 "HgN/A
7:00 PM75 °FPartly sunny.13 mph44%29.95 "HgN/A
6:30 PM75 °FPartly sunny.13 mph41%29.95 "HgN/A
6:00 PM77 °FBroken clouds.13 mph39%29.95 "HgN/A
5:30 PM77 °FBroken clouds.13 mph39%29.95 "HgN/A
5:00 PM77 °FBroken clouds.13 mph42%29.95 "HgN/A
4:30 PM77 °FBroken clouds.15 mph36%29.95 "HgN/A
4:00 PM77 °FPassing clouds.17 mph36%29.95 "HgN/A
3:30 PM79 °FPassing clouds.17 mph34%29.95 "HgN/A
3:00 PM79 °FPassing clouds.17 mph32%29.95 "HgN/A
2:30 PM79 °FPassing clouds.17 mph28%29.95 "HgN/A
2:00 PM79 °FPassing clouds.17 mph30%29.95 "HgN/A
1:30 PM79 °FPassing clouds.15 mph30%29.95 "HgN/A
1:00 PM79 °FPassing clouds.13 mph32%29.95 "HgN/A
12:30 PM77 °FPassing clouds.8 mph44%29.95 "HgN/A
12:00 PM77 °FPassing clouds.8 mph42%29.95 "HgN/A
11:30 AM75 °FPassing clouds.6 mph41%29.95 "HgN/A
11:00 AM73 °FPassing clouds.3 mph50%29.98 "HgN/A
10:30 AM72 °FBroken clouds.No wind57%29.98 "HgN/A
10:00 AM66 °FThundershowers. Broken clouds.3 mph78%29.95 "HgN/A
9:30 AM64 °FThunderstorms. More clouds than sun.6 mph73%29.95 "HgN/A
8:30 AM64 °FPassing clouds.6 mph60%29.95 "HgN/A
8:00 AM59 °FPassing clouds.6 mph63%29.95 "HgN/A
7:30 AM57 °FPassing clouds.6 mph63%29.95 "HgN/A
7:00 AM57 °FClear.6 mph63%29.95 "Hg10 mi
6:30 AM55 °FClear.3 mph67%29.95 "Hg10 mi
6:00 AM55 °FClear.3 mph72%29.95 "Hg10 mi
5:30 AM57 °FClear.1 mph67%29.95 "Hg10 mi
5:00 AM55 °FClear.1 mph77%29.95 "Hg10 mi
4:30 AM55 °FClear.1 mph77%29.98 "Hg10 mi
4:00 AM57 °FClear.3 mph82%29.98 "Hg10 mi
3:30 AM59 °FClear.3 mph82%29.98 "Hg10 mi
2:30 AM63 °FClear.1 mph83%29.98 "Hg10 mi
2:00 AM61 °FClear.1 mph72%29.98 "Hg10 mi
1:30 AM61 °FClear.3 mph68%29.98 "Hg10 mi
1:00 AM59 °FClear.3 mph68%29.98 "Hg10 mi
12:30 AM59 °FPassing clouds.3 mph63%30.01 "HgN/A
12:00 AM63 °FClear.No wind59%30.01 "Hg10 mi
11:30 PM
Mon, Aug 31
66 °FClear.1 mph56%30.01 "Hg10 mi
11:00 PM66 °FClear.3 mph60%30.01 "Hg10 mi
Weather by CustomWeather, © 2015

See weather overviewHow to use our weather pages